Total_Precipitation_Accumulation
1.10 1.13 1.61 2.28 2.03 1.49 1.09 0.73 0.43 0.32 0.19 0.11 0.06 0.07 0.20 0.47 0.72 0.98 0.80 0.66 0.48 0.34 0.27 0.33 0.44 0.39 0.35 0.33 0.30 0.29 0.34 0.34 0.30 0.32 0.29 0.28 0.24 0.22 0.21 0.18 0.17 0.17 0.18 0.19 0.24 0.33 0.38 0.40 0.49
0.97 1.38 1.87 2.43 1.86 1.32 1.18 0.73 0.43 0.28 0.12 0.06 0.04 0.04 0.12 0.20 0.19 0.43 0.80 0.90 0.44 0.29 0.27 0.35 0.48 0.46 0.45 0.42 0.40 0.45 0.45 0.41 0.40 0.42 0.37 0.36 0.31 0.26 0.24 0.22 0.20 0.20 0.22 0.24 0.27 0.35 0.43 0.46 0.48
1.23 1.98 2.33 2.10 1.38 1.24 1.17 0.72 0.38 0.20 0.09 0.05 0.05 0.04 0.09 0.20 0.26 0.49 0.83 0.70 0.43 0.32 0.33 0.50 0.63 0.60 0.58 0.52 0.53 0.58 0.56 0.52 0.50 0.49 0.48 0.48 0.43 0.39 0.33 0.29 0.28 0.27 0.30 0.33 0.32 0.36 0.43 0.48 0.50
1.31 2.07 2.09 1.57 1.33 1.14 0.82 0.55 0.29 0.19 0.12 0.04 0.03 0.07 0.10 0.24 0.38 0.52 0.59 0.51 0.46 0.43 0.39 0.51 0.63 0.68 0.67 0.56 0.56 0.65 0.60 0.57 0.52 0.47 0.49 0.49 0.46 0.46 0.40 0.41 0.40 0.35 0.36 0.38 0.39 0.42 0.43 0.47 0.51
1.65 2.02 1.73 1.36 1.29 1.00 0.67 0.48 0.27 0.22 0.18 0.06 0.04 0.15 0.20 0.33 0.43 0.49 0.53 0.46 0.47 0.45 0.36 0.41 0.63 0.67 0.65 0.61 0.65 0.73 0.67 0.62 0.53 0.48 0.52 0.54 0.53 0.50 0.48 0.48 0.48 0.45 0.41 0.40 0.42 0.42 0.43 0.45 0.49
1.76 1.77 1.54 1.33 1.29 1.08 0.80 0.50 0.30 0.24 0.16 0.09 0.09 0.21 0.27 0.36 0.51 0.58 0.62 0.70 0.71 0.69 0.54 0.49 0.64 0.68 0.66 0.69 0.74 0.82 0.83 0.72 0.59 0.55 0.55 0.53 0.53 0.52 0.52 0.52 0.52 0.50 0.48 0.48 0.46 0.45 0.44 0.39 0.41
1.65 1.60 1.32 1.02 1.08 1.25 0.90 0.51 0.35 0.30 0.24 0.17 0.13 0.26 0.36 0.42 0.51 0.64 0.79 0.93 1.02 1.04 0.93 0.81 0.75 0.69 0.71 0.77 0.76 0.92 1.07 0.91 0.73 0.65 0.64 0.57 0.52 0.51 0.51 0.50 0.54 0.52 0.52 0.50 0.49 0.51 0.46 0.41 0.39
1.29 1.26 1.04 0.98 1.06 1.27 0.84 0.52 0.36 0.27 0.22 0.15 0.13 0.24 0.39 0.38 0.46 0.63 0.80 0.91 0.96 1.01 0.94 0.93 1.00 0.99 0.98 0.98 1.05 1.18 1.50 1.37 1.00 0.80 0.69 0.64 0.56 0.53 0.57 0.53 0.55 0.59 0.58 0.58 0.61 0.59 0.55 0.54 0.49
1.26 1.36 1.25 1.36 1.32 1.14 0.71 0.53 0.36 0.22 0.18 0.14 0.14 0.21 0.28 0.30 0.40 0.48 0.59 0.67 0.73 0.76 0.81 0.87 0.92 0.94 0.97 0.96 1.12 1.38 1.66 1.73 1.38 1.10 0.95 0.78 0.54 0.57 0.65 0.58 0.66 0.70 0.69 0.71 0.75 0.73 0.67 0.64 0.55
1.24 1.25 1.14 1.17 0.96 0.69 0.54 0.44 0.34 0.26 0.24 0.21 0.23 0.26 0.28 0.31 0.42 0.47 0.52 0.61 0.61 0.59 0.56 0.58 0.61 0.67 0.72 0.77 1.04 1.27 1.33 1.53 1.31 1.28 1.13 0.98 0.92 0.87 0.69 0.64 0.78 0.83 0.81 0.79 0.82 0.84 0.70 0.58 0.45
1.11 0.98 0.84 0.82 0.59 0.42 0.36 0.32 0.26 0.21 0.24 0.23 0.27 0.28 0.32 0.36 0.41 0.45 0.47 0.50 0.52 0.54 0.51 0.45 0.46 0.48 0.54 0.67 0.88 1.10 1.23 1.40 1.41 1.39 1.33 1.32 1.27 0.94 0.77 0.84 0.87 0.87 0.86 0.75 0.78 0.77 0.58 0.45 0.42
1.06 0.83 0.70 0.61 0.41 0.36 0.32 0.26 0.19 0.13 0.12 0.12 0.16 0.21 0.28 0.36 0.37 0.36 0.39 0.42 0.45 0.49 0.56 0.49 0.37 0.37 0.39 0.47 0.66 0.86 1.07 1.26 1.31 1.14 1.06 1.19 1.20 1.01 0.88 1.00 1.08 1.04 0.99 0.97 0.97 0.88 0.71 0.53 0.46
1.02 0.95 0.73 0.57 0.40 0.36 0.26 0.22 0.16 0.12 0.08 0.09 0.14 0.23 0.32 0.40 0.41 0.41 0.37 0.39 0.40 0.46 0.54 0.56 0.48 0.40 0.39 0.44 0.51 0.58 0.87 1.05 1.20 1.25 1.03 1.15 1.19 1.11 0.98 0.92 1.09 1.04 1.02 1.03 1.03 0.98 0.85 0.72 0.58
1.00 0.83 0.56 0.49 0.41 0.35 0.28 0.22 0.20 0.15 0.13 0.11 0.14 0.23 0.31 0.39 0.44 0.47 0.42 0.39 0.36 0.40 0.47 0.52 0.55 0.54 0.50 0.49 0.51 0.51 0.56 0.67 0.79 0.76 0.73 0.92 1.03 1.00 1.00 0.86 0.91 0.98 1.08 1.23 1.22 1.04 0.93 0.83 0.70
0.74 0.64 0.57 0.45 0.39 0.34 0.32 0.29 0.21 0.16 0.17 0.17 0.15 0.19 0.27 0.34 0.36 0.39 0.39 0.36 0.35 0.39 0.42 0.47 0.54 0.61 0.62 0.63 0.71 0.64 0.59 0.64 0.64 0.60 0.61 0.72 0.82 0.84 0.97 0.94 0.90 0.91 1.09 1.24 1.31 1.20 1.09 0.91 0.79
0.61 0.59 0.73 0.56 0.50 0.43 0.41 0.34 0.17 0.18 0.16 0.15 0.13 0.13 0.18 0.24 0.28 0.31 0.34 0.36 0.35 0.37 0.37 0.39 0.43 0.48 0.53 0.60 0.68 0.73 0.73 0.75 0.71 0.74 0.70 0.66 0.79 0.91 1.02 1.05 0.95 0.94 1.11 1.26 1.34 1.38 1.31 1.15 1.01
0.60 0.56 0.54 0.49 0.43 0.36 0.32 0.24 0.12 0.12 0.10 0.09 0.08 0.06 0.08 0.11 0.17 0.21 0.25 0.30 0.34 0.35 0.32 0.31 0.32 0.32 0.35 0.42 0.54 0.65 0.72 0.80 0.86 0.88 0.86 0.84 0.87 0.91 1.03 1.17 1.18 1.17 1.23 1.26 1.27 1.28 1.21 1.15 1.08
0.51 0.37 0.32 0.32 0.23 0.25 0.22 0.15 0.12 0.08 0.06 0.04 0.04 0.03 0.03 0.03 0.06 0.11 0.15 0.23 0.27 0.29 0.30 0.30 0.31 0.30 0.27 0.31 0.45 0.56 0.63 0.71 0.87 0.94 1.00 1.27 1.35 1.14 1.09 1.18 1.20 1.23 1.33 1.32 1.41 1.50 1.33 1.15 1.16
0.38 0.23 0.17 0.18 0.13 0.12 0.10 0.07 0.06 0.04 0.02 0.01 0.01 0.02 0.02 0.01 0.01 0.02 0.04 0.08 0.14 0.15 0.14 0.18 0.24 0.31 0.29 0.26 0.33 0.44 0.53 0.67 0.81 0.97 1.04 1.27 1.37 1.28 1.29 1.28 1.25 1.24 1.27 1.30 1.46 1.68 1.56 1.35 1.24
0.32 0.21 0.12 0.11 0.10 0.06 0.04 0.03 0.04 0.03 0.02 0.01 0.01 0.01 0.02 0.02 0.01 0.01 0.01 0.02 0.02 0.05 0.07 0.10 0.15 0.24 0.32 0.36 0.41 0.53 0.71 0.83 0.93 1.06 1.13 1.24 1.26 1.25 1.17 1.30 1.38 1.32 1.37 1.44 1.57 1.71 1.76 1.57 1.40
0.18 0.17 0.13 0.10 0.08 0.04 0.02 0.03 0.03 0.03 0.03 0.03 0.03 0.03 0.03 0.03 0.03 0.02 0.01 0.02 0.02 0.03 0.05 0.11 0.19 0.33 0.50 0.66 0.88 1.13 1.41 1.53 1.42 1.27 1.34 1.47 1.53 1.49 1.41 1.47 1.59 1.50 1.50 1.53 1.57 1.60 1.86 1.88 1.68
0.11 0.08 0.07 0.05 0.05 0.03 0.01 0.02 0.03 0.05 0.07 0.08 0.09 0.09 0.09 0.08 0.07 0.06 0.05 0.05 0.07 0.11 0.17 0.28 0.40 0.57 0.74 0.95 1.17 1.43 1.66 1.82 1.84 1.86 1.89 1.87 1.81 1.69 1.58 1.58 1.61 1.62 1.66 1.56 1.46 1.59 1.87 2.16 2.09
0.10 0.07 0.02 0.01 0.02 0.01 0.01 0.02 0.05 0.11 0.18 0.23 0.25 0.25 0.23 0.19 0.19 0.18 0.16 0.15 0.18 0.28 0.41 0.53 0.76 0.93 1.06 1.13 1.23 1.45 1.56 1.63 1.74 1.88 1.93 1.93 1.84 1.70 1.56 1.51 1.53 1.59 1.67 1.64 1.66 1.81 2.03 2.22 2.34
0.08 0.04 0.01 0.01 0.01 0.01 0.01 0.05 0.15 0.24 0.32 0.40 0.40 0.37 0.33 0.26 0.24 0.27 0.29 0.30 0.35 0.57 0.81 0.96 1.07 1.16 1.16 1.14 1.16 1.30 1.43 1.52 1.60 1.73 1.79 1.73 1.58 1.53 1.50 1.49 1.44 1.39 1.45 1.54 1.68 1.90 2.00 2.14 2.30
0.03 0.02 0.03 0.04 0.04 0.04 0.04 0.12 0.26 0.28 0.27 0.31 0.34 0.33 0.29 0.22 0.19 0.23 0.33 0.46 0.65 0.90 1.14 1.28 1.28 1.18 1.04 1.02 1.09 1.15 1.30 1.44 1.48 1.49 1.51 1.45 1.38 1.33 1.35 1.37 1.31 1.20 1.19 1.30 1.46 1.65 1.69 1.79 1.96
0.01 0.01 0.06 0.09 0.06 0.07 0.11 0.27 0.39 0.30 0.21 0.17 0.18 0.18 0.20 0.24 0.31 0.32 0.38 0.57 0.85 1.12 1.37 1.64 1.62 1.38 1.16 1.10 1.17 1.18 1.27 1.33 1.31 1.25 1.26 1.26 1.22 1.17 1.10 1.13 1.14 1.11 1.09 1.11 1.19 1.28 1.34 1.43 1.60
0.01 0.02 0.04 0.09 0.06 0.06 0.12 0.27 0.29 0.20 0.15 0.13 0.15 0.18 0.24 0.31 0.41 0.49 0.61 0.71 0.91 1.14 1.47 1.76 1.82 1.61 1.46 1.37 1.31 1.31 1.21 1.12 1.05 0.97 0.96 0.99 1.00 0.94 0.90 0.96 1.05 1.12 1.03 0.97 1.03 1.07 1.10 1.21 1.30
0.01 0.03 0.06 0.13 0.14 0.12 0.15 0.24 0.20 0.11 0.10 0.13 0.19 0.24 0.29 0.37 0.43 0.58 0.84 1.05 1.27 1.23 1.37 1.60 1.54 1.48 1.45 1.47 1.46 1.35 1.20 1.07 1.03 0.95 0.92 0.89 0.94 0.85 0.85 0.88 0.89 0.90 0.88 0.91 0.99 1.07 1.14 1.14 1.17
0.03 0.05 0.06 0.12 0.17 0.20 0.29 0.34 0.22 0.18 0.20 0.26 0.32 0.35 0.38 0.46 0.51 0.65 0.82 0.97 1.16 1.27 1.29 1.33 1.32 1.33 1.29 1.22 1.18 1.06 0.86 0.75 0.76 0.77 0.73 0.68 0.71 0.66 0.68 0.66 0.70 0.81 0.80 0.80 0.88 0.93 0.95 1.02 1.11
0.10 0.12 0.12 0.20 0.27 0.31 0.45 0.51 0.33 0.33 0.38 0.45 0.52 0.54 0.58 0.59 0.62 0.72 0.80 0.95 1.04 1.05 1.09 1.17 1.10 1.09 1.04 0.93 0.84 0.72 0.57 0.51 0.56 0.57 0.52 0.44 0.47 0.44 0.51 0.55 0.54 0.70 0.86 0.88 0.90 0.91 0.86 0.89 0.92